Weather History for State College, PA

Change the Weather History Date:

Monday, January 21, 2013

  Actual Average Record
Temperature  
Mean Temperature 18 °F -  
Max Temperature 24 °F 31 °F 57 °F (1951)
Min Temperature 12 °F 16 °F -17 °F (1985)
Degree Days  
Heating Degree Days 46    
Moisture  
Dew Point 9 °F    
Average Humidity 66    
Maximum Humidity 86    
Minimum Humidity 55    
Precipitation  
Precipitation 0.00 in - - ()
Sea Level Pressure  
Sea Level Pressure 29.95 in    
Wind  
Wind Speed 6 mph (SW)    
Max Wind Speed 20 mph    
Max Gust Speed 28 mph    
Visibility 8 miles    
Events Snow    
Averages and records for this station are not official NWS values.
T = Trace of Precipitation, MM = Missing Value Source: NWS Daily Summary

Daily Weather History Graph

Daily Weather History Graph

Search for Another Location

Airport:

Trip Planner

Search our weather history database for the weather conditions in past years. The results will help you decide how hot, cold, wet, or windy it might be!

Date:

Astronomy

Jan. 21, 2013 Rise Set
Actual Time 7:30 AM EST 5:15 PM EST
Civil Twilight 7:00 AM EST 5:45 PM EST
Nautical Twilight 6:27 AM EST 6:18 PM EST
Astronomical Twilight 5:54 AM EST 6:51 PM EST
Moon 12:54 PM EST (1/21) 2:56 AM EST (1/21)
Length of Visible Light 10h 44m
Length of Day
9h 45m
Waxing Gibbous, 75% of the Moon is Illuminated
Jan 21
Waxing Gibbous
Jan 26
Full
Feb 3
Last Quarter
Feb 10
New
Feb 17
First Quarter

Hourly Weather History & Observations

Time (EST) Temp. Windchill Dew Point Humidity Pressure Visibility Wind Dir Wind Speed Gust Speed Precip Events Conditions
12:15 AM 19.8 °F 13.2 °F 6.1 °F 55% 30.04 in 10.0 mi West 4.6 mph - N/A   Scattered Clouds
12:35 AM 19.4 °F 11.5 °F 6.6 °F 58% 30.04 in 10.0 mi WSW 5.8 mph - N/A   Scattered Clouds
12:55 AM 19.2 °F 11.3 °F 7.0 °F 59% 30.03 in 10.0 mi SW 5.8 mph - N/A   Scattered Clouds
1:15 AM 19.4 °F 10.4 °F 7.2 °F 59% 30.03 in 10.0 mi WSW 6.9 mph - N/A   Mostly Cloudy
1:35 AM 19.2 °F 11.3 °F 7.5 °F 60% 30.03 in 10.0 mi WSW 5.8 mph - N/A   Mostly Cloudy
1:55 AM 18.1 °F 12.9 °F 7.7 °F 64% 30.04 in 10.0 mi SW 3.5 mph - N/A   Scattered Clouds
2:15 AM 17.6 °F 12.3 °F 7.7 °F 65% 30.04 in 10.0 mi South 3.5 mph - N/A   Clear
2:35 AM 18.5 °F 11.7 °F 7.9 °F 63% 30.04 in 10.0 mi SSW 4.6 mph - N/A   Scattered Clouds
2:55 AM 18.5 °F 11.7 °F 8.1 °F 64% 30.04 in 10.0 mi SSW 4.6 mph - N/A   Mostly Cloudy
3:15 AM 18.5 °F 10.4 °F 8.2 °F 64% 30.04 in 10.0 mi SSW 5.8 mph - N/A   Overcast
3:35 AM 19.0 °F 10.0 °F 8.2 °F 63% 30.03 in 10.0 mi SSW 6.9 mph - N/A   Mostly Cloudy
3:55 AM 18.7 °F 11.9 °F 8.4 °F 64% 30.03 in 10.0 mi SSW 4.6 mph - N/A   Mostly Cloudy
4:15 AM 18.0 °F 12.7 °F 8.6 °F 67% 30.02 in 10.0 mi SW 3.5 mph - N/A   Scattered Clouds
4:35 AM 18.5 °F 13.3 °F 9.5 °F 68% 30.01 in 10.0 mi SSW 3.5 mph - N/A   Mostly Cloudy
4:55 AM 19.2 °F 12.5 °F 9.0 °F 64% 30.01 in 10.0 mi SSW 4.6 mph - N/A   Overcast
5:15 AM 19.6 °F 14.5 °F 8.8 °F 63% 30.00 in 10.0 mi SSW 3.5 mph - N/A   Overcast
5:53 AM 19.4 °F 14.3 °F 8.6 °F 63% 30.00 in 10.0 mi SSW 3.5 mph - N/A   Overcast
6:53 AM 21.2 °F 16.4 °F 10.4 °F 63% 29.99 in 10.0 mi SSW 3.5 mph - N/A   Overcast
7:53 AM 21.2 °F 14.9 °F 10.4 °F 63% 29.98 in 10.0 mi SSW 4.6 mph - N/A   Overcast
8:58 AM 21.2 °F 13.6 °F 12.2 °F 68% 29.98 in 7.0 mi SW 5.8 mph - N/A Snow Light Snow
9:53 AM 21.2 °F 13.6 °F 14.0 °F 74% 29.97 in 3.0 mi SSW 5.8 mph - N/A Snow Light Snow
10:53 AM 21.2 °F 13.6 °F 15.8 °F 80% 29.95 in 3.0 mi SW 5.8 mph - N/A Snow Light Snow
11:53 AM 23.0 °F 15.8 °F 17.6 °F 80% 29.91 in 3.0 mi West 5.8 mph - N/A Snow Light Snow
12:53 PM 23.0 °F 15.8 °F 19.4 °F 86% 29.86 in 3.0 mi West 5.8 mph - N/A Snow Light Snow
1:53 PM 23.0 °F - 19.4 °F 86% 29.83 in 3.0 mi Calm Calm - N/A Snow Light Snow
2:53 PM 23.0 °F - 19.4 °F 86% 29.82 in 3.0 mi Calm Calm - N/A Snow Light Snow
3:53 PM 24.8 °F - 19.4 °F 80% 29.82 in 7.0 mi Calm Calm - N/A   Overcast
4:20 PM 24.8 °F 12.9 °F 15.8 °F 69% 29.83 in 2.0 mi West 13.8 mph 26.5 mph N/A Snow Light Snow
4:53 PM 21.2 °F 8.3 °F 14.0 °F 74% 29.85 in 5.0 mi West 13.8 mph 23.0 mph N/A Snow Light Snow
6:53 PM 19.4 °F 7.2 °F 12.2 °F 74% 29.88 in 7.0 mi West 11.5 mph - N/A   Scattered Clouds
7:53 PM 19.4 °F 4.5 °F 8.6 °F 63% 29.87 in 7.0 mi West 17.3 mph - N/A   Partly Cloudy
8:53 PM 17.6 °F 5.7 °F 8.6 °F 68% 29.87 in 5.0 mi West 10.4 mph - N/A Snow Light Snow
9:55 PM 16.2 °F 0.3 °F 3.2 °F 57% 29.88 in 10.0 mi West 17.3 mph 26.5 mph N/A   Clear
10:15 PM 15.4 °F -0.1 °F 2.8 °F 58% 29.88 in 10.0 mi West 16.1 mph 26.5 mph N/A   Scattered Clouds
10:35 PM 14.9 °F -2.3 °F 2.3 °F 57% 29.88 in 10.0 mi West 19.6 mph 25.3 mph N/A   Scattered Clouds
10:55 PM 14.5 °F -0.2 °F 2.8 °F 60% 29.89 in 10.0 mi West 13.8 mph 27.6 mph N/A   Scattered Clouds
11:15 PM 13.8 °F -0.5 °F 2.3 °F 60% 29.90 in 10.0 mi West 12.7 mph 26.5 mph N/A   Scattered Clouds
11:35 PM 13.5 °F 1.3 °F 0.5 °F 56% 29.91 in 10.0 mi WSW 9.2 mph 25.3 mph N/A   Scattered Clouds
11:55 PM 12.9 °F -2.2 °F 2.7 °F 64% 29.90 in 10.0 mi West 13.8 mph 23.0 mph N/A   Scattered Clouds